This demonstration page uses our WeatherBlox Daily Observations layout. Learn more.

Left ArrowRight Arrow

31.31129, -92.44514

Hourly Observations for August 14, 2018

Temp ( °F °C ) Dew Point ( °F °C ) Humidity (%) Winds ( mph kmh ) Pressure ( in mb ) Visibility ( mi km ) Precip ( " mm )
12:53 am 00:53 Clear 75 23.9 71 21.7 88 88 Calm 30.00 1016 8 13 0.00 0.00
1:53 am 01:53 Clear 75 23.9 71 21.7 88 88 S 3 6 30.00 1016 8 13 0.00 0.00
2:53 am 02:53 Clear 73 22.8 70 21.1 90 90 Calm 29.99 1016 7 11 0.00 0.00
3:53 am 03:53 Clear 72 22.2 70 21.1 94 94 SE 3 6 29.99 1016 7 11 0.00 0.00
4:53 am 04:53 Clear 72 22.2 70 21.1 94 94 Calm 29.99 1016 7 11 0.00 0.00
5:53 am 05:53 Clear with Mist and Fog 70 21.1 69 20.6 97 97 Calm 30.01 1016 6 10 0.00 0.00
6:28 am 06:28 Partly Cloudy with Mist and Fog 69 20.6 68 20 96 96 Calm 30.03 1017 3 4 0.00 0.00
6:38 am 06:38 Mostly Cloudy with Mist and Fog 69 20.6 68 20 96 96 Calm 30.03 1017 1 2 0.00 0.00
6:48 am 06:48 Partly Cloudy with Mist and Fog 70 21 70 21 100 100 Calm 30.03 1017 2 3 0.00 0.00
6:53 am 06:53 Partly Cloudy with Mist and Fog 70 21.1 69 20.6 97 97 Calm 30.03 1017 5 8 0.00 0.00
7:53 am 07:53 Sunny with Mist and Fog 74 23.3 73 22.8 97 97 Calm 30.04 1017 5 8 0.00 0.00
8:53 am 08:53 Sunny with Mist and Fog 78 25.6 74 23.3 87 87 Calm 30.04 1017 6 10 0.00 0.00
9:53 am 09:53 Sunny 84 28.9 75 23.9 74 74 SSW 6 9 30.04 1017 7 11 0.00 0.00
10:53 am 10:53 Sunny 88 31.1 73 22.8 61 61 WSW 7 11 30.04 1017 8 13 0.00 0.00
11:53 am 11:53 Partly Cloudy 90 32.2 73 22.8 58 58 WSW 9 15 30.04 1017 8 13 0.00 0.00
12:53 pm 12:53 Sunny 92 33.3 72 22.2 52 52 SW 8 13 30.03 1017 8 13 0.00 0.00
1:53 pm 13:53 Hazy 93 33.9 70 21.1 47 47 SSW 7 11 30.01 1016 2 3 0.00 0.00
2:08 pm 14:08 Mostly Sunny 94 34.4 70 21.1 46 46 SSW 8 13 30.00 1016 8 13 0.00 0.00
2:53 pm 14:53 Mostly Sunny 94 34.4 70 21.1 46 46 S 6 9 30.00 1016 8 13 0.00 0.00
3:53 pm 15:53 Partly Cloudy 95 35 68 20 41 41 W 5 7 29.98 1015 8 13 0.00 0.00
4:53 pm 16:53 Partly Cloudy with Heavy Rain 94 34.4 68 20 43 43 SSW 6 9 29.97 1015 9 14 0.00 0.00
5:53 pm 17:53 Sunny 93 33.9 69 20.6 46 46 S 5 7 29.97 1015 9 14 0.00 0.00
6:53 pm 18:53 Sunny 90 32.2 71 21.7 54 54 S 5 7 29.95 1014 8 13 0.00 0.00
7:53 pm 19:53 Sunny 84 28.9 73 22.8 70 70 S 6 9 29.95 1014 8 13 0.00 0.00
8:53 pm 20:53 Partly Cloudy 83 28.3 73 22.8 72 72 S 7 11 29.95 1014 9 14 0.00 0.00
9:53 pm 21:53 Clear 81 27.2 73 22.8 77 77 S 3 6 29.97 1015 9 14 0.00 0.00
10:53 pm 22:53 Clear 79 26.1 73 22.8 82 82 SSE 6 9 29.98 1015 8 13 0.00 0.00
11:53 pm 23:53 Clear 76 24.4 73 22.8 91 91 SSE 5 7 29.99 1016 8 13 0.00 0.00

Powered by AerisWeather